Middletown, PA

7:13 PM EDT on September 25, 2017 (GMT -0400)
Harrisburg International

Weather History for KMDT - August, 2013

Change the Weather History Date:

Saturday, August 31, 2013

  Actual Average Record
Temperature  
Mean Temperature 79 °F 72 °F  
Max Temperature 87 °F 81 °F 98 °F (1953)
Min Temperature 71 °F 62 °F 45 °F (1976)
Degree Days  
Heating Degree Days 0 0  
Month to date heating degree days 0 0  
Since 1 June heating degree days 2 20  
Since 1 July heating degree days 0 2  
Cooling Degree Days 14 7  
Month to date cooling degree days 237 280  
Year to date cooling degree days 952 896  
Since 1 June cooling degree days 869 831  
Growing Degree Days 30 (Base 50)    
Moisture  
Dew Point 70 °F    
Average Humidity 74    
Maximum Humidity 88    
Minimum Humidity 59    
Precipitation  
Precipitation T in 0.10 in 2.61 in (1940)
Month to date precipitation 3.11 3.20  
Year to date precipitation 24.27 26.94  
Sea Level Pressure  
Sea Level Pressure 29.83 in    
Wind  
Wind Speed 3 mph (SSW)    
Max Wind Speed 14 mph    
Max Gust Speed 22 mph    
Visibility 9 miles    
Events      
T = Trace of Precipitation, MM = Missing Value Source: NWS Daily Summary

Daily Weather History Graph

Daily Weather History Graph

Search for Another Location

Airport or City:

Trip Planner

Search our weather history database for the weather conditions in past years. The results will help you decide how hot, cold, wet, or windy it might be!

Date:

Astronomy

Aug. 31, 2013 Rise Set
Actual Time 6:33 AM EDT 7:39 PM EDT
Civil Twilight 6:05 AM EDT 8:07 PM EDT
Nautical Twilight 5:32 AM EDT 8:40 PM EDT
Astronomical Twilight 4:57 AM EDT 9:15 PM EDT
Moon 2:00 AM EDT (8/31) 4:37 PM EDT (8/31)
Length of Visible Light 14h 01m
Length of Day
13h 06m
Waning Crescent, 21% of the Moon is Illuminated
Aug 31
Waning Crescent
Sep 5
New
Sep 12
First Quarter
Sep 19
Full
Sep 26
Last Quarter

Hourly Weather History & Observations

Time (EDT) Temp. Heat Index Dew Point Humidity Pressure Visibility Wind Dir Wind Speed Gust Speed Precip Events Conditions
12:56 AM 75.0 °F - 66.9 °F 76% 29.86 in 10.0 mi Variable 5.8 mph - N/A   Scattered Clouds
1:56 AM 75.0 °F - 66.9 °F 76% 29.84 in 10.0 mi SSW 10.4 mph 17.3 mph N/A   Scattered Clouds
2:56 AM 73.9 °F - 66.9 °F 79% 29.85 in 10.0 mi SW 9.2 mph - N/A   Mostly Cloudy
3:56 AM 73.9 °F - 66.9 °F 79% 29.84 in 10.0 mi Calm Calm - N/A   Mostly Cloudy
4:56 AM 73.0 °F - 66.0 °F 79% 29.84 in 10.0 mi Variable 3.5 mph - N/A   Scattered Clouds
5:56 AM 72.0 °F - 66.0 °F 81% 29.84 in 10.0 mi Variable 4.6 mph - N/A   Scattered Clouds
6:56 AM 72.0 °F - 66.9 °F 84% 29.85 in 10.0 mi Calm Calm - N/A   Mostly Cloudy
7:56 AM 73.0 °F - 68.0 °F 84% 29.85 in 9.0 mi South 5.8 mph - N/A   Mostly Cloudy
8:56 AM 75.0 °F - 68.0 °F 79% 29.86 in 10.0 mi Calm Calm - N/A   Overcast
9:56 AM 78.1 °F - 69.1 °F 74% 29.86 in 10.0 mi Calm Calm - N/A   Mostly Cloudy
10:56 AM 81.0 °F 84.4 °F 70.0 °F 69% 29.85 in 10.0 mi Calm Calm - N/A   Mostly Cloudy
11:56 AM 84.0 °F 89.6 °F 72.0 °F 67% 29.83 in 10.0 mi SSE 4.6 mph - N/A   Mostly Cloudy
12:56 PM 84.0 °F 89.6 °F 72.0 °F 67% 29.82 in 10.0 mi SE 4.6 mph - N/A   Mostly Cloudy
1:56 PM 86.0 °F 92.2 °F 72.0 °F 63% 29.82 in 9.0 mi Calm Calm - N/A   Mostly Cloudy
2:56 PM 87.1 °F 92.8 °F 71.1 °F 59% 29.80 in 10.0 mi Calm Calm - N/A   Overcast
3:56 PM 84.9 °F 89.4 °F 70.0 °F 61% 29.78 in 10.0 mi South 5.8 mph - N/A   Overcast
4:56 PM 84.0 °F 88.4 °F 70.0 °F 63% 29.78 in 10.0 mi WSW 5.8 mph - N/A   Overcast
5:56 PM 84.0 °F 87.8 °F 69.1 °F 61% 29.78 in 10.0 mi SSW 3.5 mph - N/A   Overcast
6:56 PM 82.0 °F 86.3 °F 71.1 °F 69% 29.78 in 10.0 mi West 6.9 mph - 0.00 in   Mostly Cloudy
7:56 PM 79.0 °F - 72.0 °F 79% 29.81 in 9.0 mi Calm Calm - N/A   Mostly Cloudy
8:56 PM 79.0 °F - 71.1 °F 77% 29.81 in 8.0 mi Calm Calm - N/A   Overcast
9:56 PM 77.0 °F - 73.0 °F 88% 29.83 in 7.0 mi Calm Calm - N/A   Overcast
10:56 PM 75.9 °F - 72.0 °F 87% 29.83 in 7.0 mi SE 4.6 mph - N/A   Mostly Cloudy
11:56 PM 77.0 °F - 72.0 °F 84% 29.81 in 7.0 mi Calm Calm - N/A   Scattered Clouds